STARLINK-5751, 55576

Orbit data source: Space-Track

STARLINK-5751, 55576 is a payload satellite owned by SpaceX/Seattle (US) in LEO that was launched on Sun, 12 Feb 2023 UTC via an FALCON 9 launch vehicle from the Air Force Eastern Test Range (AFETR). Payload-class satellites include a variety of spacecraft equipped with specific instruments for various scientific and technological missions. These include communications satellites like Starlink; space stations such as the ISS; scientific satellites like the Hubble; Earth observation satellites from companies like Planet Labs, Umbra, and HawkEye 360; GPS; miniature CubeSats for education and research; and military/defense satellites.

Loading next visibility...
Identifier
55576, 2023-020H
Orbit
LEO
Country
Flag of USUS
Related business
Manufacturer
SpaceX/Seattle
Mission
Operational spacecraft
Bus & Motor
STARLINK, Unknown motor
Mass
305 kg wet, ~290 kg dry
Launch date (UTC)
2023-02-12 (3 years ago)
Launch vehicle
FALCON 9
Launch site
Air Force Eastern Test Range (AFETR)
Object type
Payload
Rocket body
Debris
Shape & HBR
Unknown shape, 10.1 m
Radar Cross Section
Large (>1 m²)

Expand to show TLE details & history
Last TLE update: 17 hours ago

TLE from 17 hours ago
0 STARLINK-5751
1 55576U 23020H   25340.50754597  .00000296  00000-0  36959-4 0  9994
2 55576  43.0029 124.8629 0001207 273.0942  86.9762 15.02529579155203
Epoch: 2025-12-06T12:10Z
TLE epoch observation values (Epoch: 2025-12-06T12:10:51.971Z)
Latitude
-0.00005°
Longitude
-133.38798°
Altitude
558.833 km
Speed
7.584 km/s
True Right ascension
08h 19m 27s
True Declination
0° 00' 00"
Sunlit
Object was in full shadow at epoch
Visualization orbit readout
Latitude
Unknown
Longitude
Unknown
Altitude
Unknown
Speed
Unknown
Apparent Right ascension
Unknown
Apparent Declination
Unknown
Sunlit
N/A
Visualization observer readout
Local Sidereal Time
03:08:03
Azimuth
Unknown
Elevation
Unknown
Doppler factor
Unknown
Orbital elements
Apogee altitude
561.86 km
Perigee altitude
560.185 km
Semi-major axis
6,939.16 km
Eccentricity
0.00012
Inclination
43.0029°
RAAN
124.8629°
Arg. of periapsis
273.0942°
True anomaly
86.99001°
Mean anomaly
86.9762°
Eccentric anomaly
86.98311°
Mean motion
3.75477 °/min
Orbital period
95.88 mins
BSTAR
0.000036959
Loading maneuver chart data...
Computing Atmospheric mass density...
Loading historical data...
Loading historical data...
Loading historical data...
Loading historical data...
Loading historical data...
Loading historical data...
Loading historical data...

Documentation

Showing up to 5 results
|